Location: Dackenheim
(49.5215°N, 8.1854°E)
Time: 00:12:14
(UTC+00:00)

DX 1 - Visible Passes

Search period start: 14 March 2026 00:00
Search period end: 24 March 2026 00:00
Orbit: 595 x 603 km, 98.4° (Epoch: 13 March)

Date Brightness Start Highest point End Pass type
(mag) Time Alt. Az. Time Alt. Az. Time Alt. Az.
14 Mar ? 01:54:24 10° NNE 01:55:59 20° NE 01:55:59 20° NE visible
14 Mar ? 03:30:19 10° N 03:32:42 23° NW 03:32:42 23° NW visible
15 Mar ? 02:05:04 10° NNE 02:07:00 25° NE 02:07:00 25° NE visible
15 Mar ? 03:41:19 10° NNW 03:43:45 20° NW 03:43:45 20° NW visible
16 Mar ? 02:15:46 10° NNE 02:18:02 30° NNE 02:18:02 30° NNE visible
16 Mar ? 03:52:22 10° NNW 03:54:47 17° NW 03:54:47 17° NW visible
17 Mar ? 02:26:31 10° NNE 02:29:05 36° NNE 02:29:05 36° NNE visible
17 Mar ? 04:03:31 10° NNW 04:05:48 15° WNW 04:05:48 15° WNW visible
18 Mar ? 02:37:17 10° NNE 02:40:07 41° N 02:40:07 41° N visible
18 Mar ? 04:14:53 10° NNW 04:16:28 12° NW 04:16:51 12° WNW visible
19 Mar ? 01:13:47 10° NE 01:14:25 12° ENE 01:14:25 12° ENE visible
19 Mar ? 02:48:05 10° N 02:51:09 45° N 02:51:09 45° N visible
20 Mar ? 01:24:06 10° NE 01:25:27 15° ENE 01:25:27 15° ENE visible
20 Mar ? 02:58:55 10° N 03:02:11 43° NNW 03:02:11 43° NNW visible
21 Mar ? 01:34:33 10° NE 01:36:29 19° ENE 01:36:29 19° ENE visible
21 Mar ? 03:09:47 10° N 03:13:12 38° NW 03:13:12 38° NW visible
22 Mar ? 01:45:06 10° NE 01:47:30 24° ENE 01:47:30 24° ENE visible
22 Mar ? 03:20:40 10° N 03:24:15 32° WNW 03:24:15 32° WNW visible
23 Mar ? 01:55:43 10° NNE 01:58:33 31° ENE 01:58:33 31° ENE visible
23 Mar ? 03:31:36 10° N 03:35:09 27° WNW 03:35:16 27° WNW visible
